Date String (YYYY-MM-DD hh:mm:ss) UTC,Instrument flags,Ambient pressure (hPa),Sample flow (lpm),Bypass flow (lpm),Sample temperature (°C),Ambient temperature (°C),ASC tube jacket temperature (°C),LED temperature (°C),Box temperature (°C),Sample RH (%),Span deviation,Mass concentration (μg/m³),Mass concentration (μg/m³),Mass concentration (μg/m³)
DateTimeUTC,F1_M11,P_M11,Q1_M11,Q2_M11,T1_M11,T2_M11,T3_M11,T4_M11,T5_M11,U1_M11,ZSPAN_M11,X2_M11,X0_M11,X1_M11
2023-01-25 04:00:00,,0824.8,5.01,0.00,22.4,22.8,00.0,31.0,24.4,10.6,-001.8,0012.28,0019.21,0011.43
2023-01-25 04:01:00,,0824.8,4.99,0.00,22.5,22.7,00.0,31.1,24.5,10.4,-001.9,0012.29,0019.35,0011.42
2023-01-25 04:02:00,,0824.8,5.01,0.00,22.5,22.3,00.0,31.1,24.4,10.4,-001.9,0012.29,0019.61,0011.40
2023-01-25 04:03:00,,0824.8,5.01,0.00,22.5,21.9,00.0,31.1,24.3,10.4,-002.1,0012.29,0020.01,0011.38
2023-01-25 04:04:00,,0824.8,4.99,0.00,22.5,21.5,00.0,31.1,24.2,10.5,-002.3,0012.29,0020.87,0011.36
2023-01-25 04:05:00,,0824.8,4.99,0.00,22.4,21.2,00.0,31.1,24.2,10.6,-002.4,0012.33,0021.10,0011.38
2023-01-25 04:06:00,,0824.8,5.01,0.00,22.4,20.9,00.0,31.1,24.1,10.6,-002.4,0012.34,0021.10,0011.41
2023-01-25 04:07:00,,0824.8,4.98,0.00,22.3,20.6,00.0,31.1,24.0,10.6,-002.5,0012.38,0021.08,0011.45
2023-01-25 04:08:00,,0824.8,4.99,0.00,22.3,20.4,00.0,31.1,23.9,10.7,-002.6,0012.40,0021.19,0011.46
2023-01-25 04:09:00,,0824.8,4.99,0.00,22.3,20.4,00.0,31.1,23.9,10.7,-002.8,0012.39,0020.93,0011.47
2023-01-25 04:10:00,,0824.7,4.99,0.00,22.2,20.3,00.0,31.1,23.9,10.2,-003.0,0012.29,0020.55,0011.40
2023-01-25 04:11:00,,0824.7,4.99,0.00,22.2,20.4,00.0,31.1,23.9,10.2,-003.0,0012.22,0020.36,0011.34
2023-01-25 04:12:00,,0824.8,5.01,0.00,22.2,20.3,00.0,31.0,23.8,10.5,-002.8,0012.20,0020.09,0011.32
2023-01-25 04:13:00,,0824.7,4.98,0.00,22.1,20.1,00.0,31.0,23.7,10.7,-002.8,0012.15,0019.29,0011.31
2023-01-25 04:14:00,,0824.7,5.01,0.00,22.1,20.1,00.0,31.0,23.7,10.7,-002.8,0012.15,0018.42,0011.33
2023-01-25 04:15:00,,0824.7,5.02,0.00,22.1,20.7,00.0,31.0,23.8,10.6,-002.8,0012.17,0017.74,0011.37
2023-01-25 04:16:00,,0824.6,5.00,0.00,22.2,21.7,00.0,31.0,24.0,10.6,-002.6,0012.20,0018.40,0011.41
2023-01-25 04:17:00,,0824.7,5.00,0.00,22.3,22.7,00.0,31.0,24.3,10.6,-002.6,0012.24,0019.22,0011.46
2023-01-25 04:18:00,,0824.7,4.98,0.00,22.4,22.7,00.0,31.0,24.4,10.6,-002.5,0012.31,0019.33,0011.53
2023-01-25 04:19:00,,0824.7,4.99,0.00,22.4,22.3,00.0,31.1,24.3,10.5,-002.3,0012.42,0019.44,0011.61
2023-01-25 04:20:00,,0824.7,5.00,0.00,22.4,22.0,00.0,31.1,24.3,10.5,-002.0,0012.53,0019.63,0011.72
2023-01-25 04:21:00,,0824.7,4.99,0.00,22.4,21.7,00.0,31.1,24.2,10.3,-002.0,0012.67,0019.79,0011.86
2023-01-25 04:22:00,,0824.6,5.00,0.00,22.4,21.4,00.0,31.1,24.2,09.9,-002.0,0012.62,0019.69,0011.85
2023-01-25 04:23:00,,0824.7,5.00,0.00,22.4,21.2,00.0,31.1,24.1,09.7,-002.1,0012.43,0020.01,0011.69
2023-01-25 04:24:00,,0824.6,5.00,0.00,22.4,21.0,00.0,31.1,24.1,09.9,-002.2,0012.39,0020.99,0011.60
2023-01-25 04:25:00,,0824.6,5.02,0.00,22.3,20.9,00.0,31.1,24.1,09.5,-002.1,0012.14,0020.80,0011.39
2023-01-25 04:26:00,,0824.6,5.02,0.00,22.3,20.8,00.0,31.1,24.0,09.1,-002.0,0011.75,0020.31,0011.03
2023-01-25 04:27:00,,0824.6,4.98,0.00,22.3,20.8,00.0,31.1,24.0,09.5,-002.0,0011.50,0019.87,0010.78
2023-01-25 04:28:00,,0824.6,5.00,0.00,22.3,20.7,00.0,31.1,24.0,09.3,-001.8,0011.20,0018.86,0010.50
2023-01-25 04:29:00,,0824.5,4.99,0.00,22.3,20.7,00.0,31.1,24.0,08.9,-001.7,0010.73,0018.36,0010.09
2023-01-25 04:30:00,,0824.6,5.00,0.00,22.3,20.7,00.0,31.1,23.9,09.0,-001.6,0010.33,0017.66,0009.79
2023-01-25 04:31:00,,0824.5,5.00,0.00,22.2,20.7,00.0,31.1,23.9,08.9,-001.7,0009.94,0017.74,0009.44
2023-01-25 04:32:00,,0824.5,5.00,0.00,22.2,20.6,00.0,31.1,23.9,08.5,-001.6,0009.53,0017.40,0009.03
2023-01-25 04:33:00,,0824.8,5.00,0.00,22.2,20.6,00.0,31.1,23.8,08.6,-001.4,0009.26,0017.08,0008.77
2023-01-25 04:34:00,,0824.6,5.00,0.00,22.2,20.8,00.0,31.0,23.9,08.7,-001.1,0009.14,0016.29,0008.66
2023-01-25 04:35:00,,0824.8,5.00,0.00,22.2,21.6,00.0,31.0,24.0,09.0,-001.0,0009.00,0015.18,0008.58
2023-01-25 04:36:00,,0824.6,4.99,0.00,22.3,22.5,00.0,31.0,24.3,09.3,-001.1,0009.08,0015.03,0008.65
2023-01-25 04:37:00,,0824.6,4.99,0.00,22.4,22.7,00.0,31.1,24.4,09.5,-001.2,0009.37,0015.02,0008.93
2023-01-25 04:38:00,,0824.7,5.00,0.00,22.5,22.2,00.0,31.1,24.4,09.6,-001.5,0009.54,0014.78,0009.07
2023-01-25 04:39:00,,0824.7,5.00,0.00,22.5,21.9,00.0,31.1,24.3,09.6,-001.5,0009.70,0015.18,0009.18
2023-01-25 04:40:00,,0825.1,5.01,0.00,22.5,21.6,00.0,31.1,24.3,09.5,-001.5,0009.94,0015.80,0009.39
2023-01-25 04:41:00,,0824.6,5.00,0.00,22.4,21.3,00.0,31.1,24.2,09.6,-001.7,0010.15,0016.37,0009.56
2023-01-25 04:42:00,,0824.8,5.00,0.00,22.4,21.2,00.0,31.2,24.2,09.7,-001.9,0010.42,0016.15,0009.79
2023-01-25 04:43:00,,0824.8,5.03,0.00,22.4,21.0,00.0,31.2,24.2,09.7,-002.0,0010.76,0016.64,0010.13
2023-01-25 04:44:00,,0824.8,4.98,0.00,22.4,20.9,00.0,31.2,24.1,09.8,-002.1,0011.12,0017.60,0010.45
2023-01-25 04:45:00,,0824.6,4.97,0.00,22.4,20.9,00.0,31.1,24.1,09.8,-002.2,0011.38,0018.21,0010.71
2023-01-25 04:46:00,,0824.9,5.00,0.00,22.4,20.8,00.0,31.1,24.1,09.8,-002.2,0011.52,0018.71,0010.84
2023-01-25 04:47:00,,0824.6,5.00,0.00,22.3,20.8,00.0,31.1,24.1,09.7,-002.0,0011.58,0018.87,0010.90
2023-01-25 04:48:00,,0824.7,5.00,0.00,22.3,20.7,00.0,31.1,24.0,09.7,-002.1,0011.52,0018.98,0010.85
2023-01-25 04:49:00,,0824.6,4.99,0.00,22.3,20.7,00.0,31.1,24.0,09.7,-001.9,0011.48,0019.24,0010.84
2023-01-25 04:50:00,,0824.6,5.01,0.00,22.3,20.7,00.0,31.1,24.0,09.7,-002.1,0011.48,0019.19,0010.87
2023-01-25 04:51:00,,0824.6,5.00,0.00,22.3,21.3,00.0,31.1,24.1,09.7,-002.2,0011.55,0018.76,0010.95
2023-01-25 04:52:00,,0824.6,5.01,0.00,22.4,22.2,00.0,31.1,24.3,09.6,-002.1,0011.53,0018.50,0010.94
2023-01-25 04:53:00,,0824.6,5.00,0.00,22.5,22.9,00.0,31.1,24.5,09.6,-001.9,0011.45,0018.26,0010.88
2023-01-25 04:54:00,,0824.6,4.98,0.00,22.6,22.6,00.0,31.2,24.6,09.6,-001.7,0011.39,0017.95,0010.82
2023-01-25 04:55:00,,0824.6,5.02,0.00,22.6,22.2,00.0,31.2,24.5,09.5,-001.8,0011.32,0017.56,0010.74
2023-01-25 04:56:00,,0824.7,5.01,0.00,22.6,21.8,00.0,31.2,24.4,09.5,-001.8,0011.27,0017.28,0010.69
2023-01-25 04:57:00,,0824.6,5.00,0.00,22.6,21.5,00.0,31.2,24.3,09.5,-001.9,0011.21,0016.86,0010.64
2023-01-25 04:58:00,,0824.6,4.99,0.00,22.5,21.3,00.0,31.2,24.3,09.5,-002.0,0011.15,0016.66,0010.59
2023-01-25 04:59:00,,0824.7,4.98,0.00,22.5,21.1,00.0,31.2,24.2,09.5,-002.1,0011.14,0016.47,0010.59
